"Pseudo-MPEC" for ZTF10Er

Created 2026 Jul 23 14:35:12 UT using Find_Orb

Click here for an explanation of pseudo-MPECs

 
 Astrometry: 
     ZTF10Er 0C2026 07 16.26286620 07 38.325-04 50 13.02   ~7I45       UNEOCPI41
     ZTF10Er 0C2026 07 16.26321320 07 40.739-04 51 00.33   ~7I45       UNEOCPI41
     ZTF10Er 0C2026 07 16.26415620 07 47.792-04 53 24.55   ~7ICK       UNEOCPI41
     ZTF10Er*0C2026 07 16.33670820 17 22.048-08 06 54.90   ~7GFZ       UNEOCPI41
     ZTF10Er 0C2026 07 16.33705620 17 24.929-08 07 53.43   ~7GFZ       UNEOCPI41
     ZTF10Er 0C2026 07 16.36194220 21 00.270-09 19 51.13   ~7I3o 19.65gUNEOCPI41
     ZTF10Er 0C2026 07 16.36229020 21 03.391-09 20 53.01   ~7I3o 19.65gUNEOCPI41
     ZTF10Er 0C2026 07 16.37679720 23 14.303-10 04 11.26   ~7GFZ 17.66gUNEOCPI41
     ZTF10Er 0C2026 07 16.37714420 23 17.422-10 05 13.45   ~7GFZ 17.66gUNEOCPI41

Station data:
(I41) Palomar Mountain--ZTF  (N33.357336 W116.859780)  US/California.
   Observers B. T. Bolin, Z. T. F. Collaboration. Measurers B. T. Bolin,
   Z.-Y. Lin, F. J. Masci. 1.2-m f/2.4 Schmidt.

Orbital elements:  ZTF10Er
   Perigee 2026 Jul 16.812943 +/- 0.000773 TT = 19:30:38.2 (JD 2461238.312943)
Epoch 2026 Jul 16.0 TT = JDT 2461237.5                           AutoNEOCP
q318630.3647 +/- 18966              (J2000 equator)
H   30.28 G 0.15                    Peri.  230.738594 +/- 0.24
                                    Node   117.950639 +/- 0.022
e  34.66907958 +/- 6.03             Incl.   50.249031 +/- 0.20
From 9 observations 2026 July 16 (2.7 hr); mean residual 1".03
Residuals in arcseconds: 
260716 I41  1.5+  2.2-    260716 I41  .76+  .59-    260716 I41  .76-  .19+    
260716 I41  1.0-  2.5+    260716 I41  .09-  .04+    260716 I41  1.1+  .45-    
260716 I41  .45-  .20-    260716 I41  1.2-  .47+    260716 I41  .22+  .20+    

Ephemerides (geocentric):
Date (UTC) HH   RA             Dec           delta  r     elong  mag " sig PA
---- --------  ------------   ------------  ------ ------ -----  --- --------
2026 07 23 15  05 50 21.614   -31 11 39.72  .02573 1.0037  61.3 27.0 1888  30
2026 07 23 16  05 50 27.995   -31 10 23.23  .02588 1.0037  61.3 27.0 1889  30
2026 07 23 17  05 50 34.302   -31 09 07.51  .02604 1.0036  61.3 27.0 1889  30
2026 07 23 18  05 50 40.536   -31 07 52.56  .02619 1.0035  61.2 27.0 1890  30
2026 07 23 19  05 50 46.700   -31 06 38.36  .02635 1.0034  61.2 27.0 1890  30
2026 07 23 20  05 50 52.794   -31 05 24.89  .02650 1.0033  61.2 27.1 1890  30
2026 07 23 21  05 50 58.820   -31 04 12.15  .02666 1.0033  61.2 27.1 1891  30
2026 07 23 22  05 51 04.778   -31 03 00.13  .02682 1.0032  61.2 27.1 1891  30
2026 07 23 23  05 51 10.671   -31 01 48.80  .02697 1.0031  61.2 27.1 1892  30
2026 07 24 00  05 51 16.499   -31 00 38.16  .02713 1.0030  61.2 27.1 1892  30
2026 07 24 01  05 51 22.264   -30 59 28.19  .02728 1.0029  61.1 27.1 1892  30
2026 07 24 02  05 51 27.966   -30 58 18.88  .02744 1.0029  61.1 27.1 1893  30
2026 07 24 03  05 51 33.608   -30 57 10.23  .02759 1.0028  61.1 27.1 1893  30
2026 07 24 04  05 51 39.189   -30 56 02.21  .02775 1.0027  61.1 27.2 1894  30
2026 07 24 05  05 51 44.711   -30 54 54.83  .02791 1.0026  61.1 27.2 1894  30
2026 07 24 06  05 51 50.176   -30 53 48.06  .02806 1.0025  61.1 27.2 1894  30
2026 07 24 07  05 51 55.583   -30 52 41.89  .02822 1.0024  61.1 27.2 1895  30
2026 07 24 08  05 52 00.935   -30 51 36.33  .02837 1.0024  61.1 27.2 1895  30
2026 07 24 09  05 52 06.232   -30 50 31.35  .02853 1.0023  61.0 27.2 1896  30
2026 07 24 10  05 52 11.476   -30 49 26.95  .02868 1.0022  61.0 27.2 1896  30
2026 07 24 11  05 52 16.666   -30 48 23.11  .02884 1.0021  61.0 27.2 1896  30
2026 07 24 12  05 52 21.804   -30 47 19.83  .02899 1.0020  61.0 27.3 1897  30
2026 07 24 13  05 52 26.891   -30 46 17.11  .02915 1.0020  61.0 27.3 1897  30
2026 07 24 14  05 52 31.929   -30 45 14.91  .02931 1.0019  61.0 27.3 1898  30
2026 07 24 15  05 52 36.916   -30 44 13.25  .02946 1.0018  61.0 27.3 1898  30
2026 07 24 16  05 52 41.856   -30 43 12.11  .02962 1.0017  61.0 27.3 1898  30
2026 07 24 17  05 52 46.747   -30 42 11.49  .02977 1.0016  61.0 27.3 1899  30
2026 07 24 18  05 52 51.592   -30 41 11.37  .02993 1.0016  61.0 27.3 1899  30
2026 07 24 19  05 52 56.391   -30 40 11.74  .03008 1.0015  61.0 27.3 1899  30
2026 07 24 20  05 53 01.145   -30 39 12.60  .03024 1.0014  60.9 27.3 1900  30
2026 07 24 21  05 53 05.854   -30 38 13.94  .03039 1.0013  60.9 27.4 1900  30
2026 07 24 22  05 53 10.520   -30 37 15.76  .03055 1.0012  60.9 27.4 1900  30
2026 07 24 23  05 53 15.142   -30 36 18.04  .03071 1.0012  60.9 27.4 1901  30
2026 07 25 00  05 53 19.722   -30 35 20.78  .03086 1.0011  60.9 27.4 1901  30
2026 07 25 01  05 53 24.261   -30 34 23.96  .03102 1.0010  60.9 27.4 1902  30
2026 07 25 02  05 53 28.759   -30 33 27.59  .03117 1.0009  60.9 27.4 1902  30
2026 07 25 03  05 53 33.216   -30 32 31.66  .03133 1.0008  60.9 27.4 1902  30
2026 07 25 04  05 53 37.634   -30 31 36.16  .03148 1.0008  60.9 27.4 1903  30
2026 07 25 05  05 53 42.013   -30 30 41.08  .03164 1.0007  60.9 27.4 1903  30
2026 07 25 06  05 53 46.354   -30 29 46.41  .03179 1.0006  60.9 27.5 1903  30
2026 07 25 07  05 53 50.657   -30 28 52.16  .03195 1.0005  60.9 27.5 1904  30
2026 07 25 08  05 53 54.923   -30 27 58.31  .03211 1.0004  60.9 27.5 1904  30
2026 07 25 09  05 53 59.153   -30 27 04.85  .03226 1.0004  60.9 27.5 1904  30
2026 07 25 10  05 54 03.346   -30 26 11.79  .03242 1.0003  60.8 27.5 1905  30
2026 07 25 11  05 54 07.505   -30 25 19.11  .03257 1.0002  60.8 27.5 1905  30
2026 07 25 12  05 54 11.629   -30 24 26.81  .03273 1.0001  60.8 27.5 1906  30
2026 07 25 13  05 54 15.718   -30 23 34.88  .03288 1.0001  60.8 27.5 1906  30
2026 07 25 14  05 54 19.774   -30 22 43.32  .03304 1.0000  60.8 27.5 1906  30